[Iaude] MPEC D11: 2024 CF7 [a=1.09,e=0.21,i=15.0,H=29.4]
    mpec at cfa.harvard.edu 
    mpec at cfa.harvard.edu
       
    Fri Feb 16 09:46:27 EST 2024
    
    
  
M.P.E.C. 2024-D11                             Issued 2024 February 16, 14:44 UT
     The Minor Planet Electronic Circulars contain information on unusual
         minor planets, routine data on comets and natural satellites,
         and occasional editorial announcements.  They are published
    on behalf of Division F of the International Astronomical Union by the
          Minor Planet Center, Smithsonian Astrophysical Observatory,
                          Cambridge, MA 02138, U.S.A.
			  
             Prepared using the Tamkin Foundation Computer Network
                              MPC at CFA.HARVARD.EDU
            URL https://www.minorplanetcenter.net/    ISSN 1523-6714
                                    2024 CF7                                    
Observations:
     K24C07F*1C2024 02 15.45944612 13 56.903+56 30 26.46         21.00GVED011G96
     K24C07F 1C2024 02 15.46467512 13 57.745+56 29 50.39         21.48GVED011G96
     K24C07F 1C2024 02 15.46991012 13 58.631+56 29 14.86         21.30GVED011G96
     K24C07F 1C2024 02 15.47512912 13 59.455+56 28 37.56         21.28GVED011G96
     K24C07F 1C2024 02 15.54400112 14 15.673+56 19 13.51         20.68GVED011G96
     K24C07F 1C2024 02 15.54511012 14 16.012+56 19 01.99         21.38GVED011G96
     K24C07F 1C2024 02 15.54622012 14 16.361+56 18 53.50         20.68GVED011G96
     K24C07F 1C2024 02 15.54732912 14 16.656+56 18 42.73         21.27GVED011G96
     K24C07F IC2024 02 16.10865912 25 01.61 +54 46 19.9          20.2 GVED011L01
     K24C07F KC2024 02 16.11335712 25 05.73 +54 45 03.7          20.2 GVED011L01
     K24C07F KC2024 02 16.11484012 25 07.06 +54 44 39.2          20.1 GVED011L01
     K24C07F KC2024 02 16.11636412 25 08.36 +54 44 14.0          20.0 GVED011L01
     K24C07F KC2024 02 16.11788712 25 09.71 +54 43 48.5          20.2 GVED011L01
     K24C07F KC2024 02 16.11936612 25 11.03 +54 43 24.1          20.0 GVED011L01
     K24C07F  C2024 02 16.32792812 33 33.252+53 39 40.40         19.8 GVED011H01
     K24C07F  C2024 02 16.33345712 33 41.609+53 37 48.45         19.8 GVED011H01
     K24C07F  C2024 02 16.34693812 34 02.099+53 33 03.09         19.4 GVED011H01
     K24C07F  C2024 02 16.35301612 34 11.355+53 30 49.44         19.3 GVED011H01
Observer details:
G96 Mt. Lemmon Survey.  Observers V. F. Carvajal, J. K. Hogan.  Measurers T.
    Beuden, V. F. Carvajal, D. Fay, J. B. Fazekas, D. C. Fuls, A. R. Gibbs, A.
    D. Grauer, H. Groeller, J. K. Hogan, R. A. Kowalski, S. M. Larson, G. J.
    Leonard, D. Rankin, R. L. Seaman, F. C. Shelly, K. W. Wierzchos.  1.5-m
    reflector + 10K CCD.
H01 Magdalena Ridge Observatory, Socorro.  Observers W. H. Ryan, E. V. Ryan.
    Measurer W. H. Ryan.  2.4-m f/8.9 Ritchey-Chretien + CCD.
L01 Visnjan Observatory, Tican.  Observer K. Korlevic.  1.0-m f/2.9 reflector
    + CCD.
Orbital elements:
2024 CF7                                                 Earth MOID = 0.0003 AU
Epoch 2024 Mar. 31.0 TT = JDT 2460400.5                 Bell                    
M 344.40537              (2000.0)            P               Q                  
n   0.86308381     Peri.  255.25742     -0.71422447     +0.68606494             
a   1.0925318      Node   327.69685     -0.49979941     -0.63850910             
e   0.2148545      Incl.   15.02723     -0.48998363     -0.34874206             
P   1.14           H   29.46          G   0.15           U   7                  
Residuals in seconds of arc
240215 G96  0.7-  0.2+    240215 G96  0.2+  0.6+    240216 L01  0.1-  0.1-
240215 G96  0.2-  0.5-    240215 G96  0.3-  0.2+    240216 L01  0.1-  0.1+
240215 G96  0.3+  0.3+    240216 L01  0.1-  0.3+    240216 H01  0.3+  0.3-
240215 G96  0.0   0.0     240216 L01  0.1+  0.3+    240216 H01  0.1-  0.1+
240215 G96  0.5+  0.2+    240216 L01  0.3+  0.2+    240216 H01  0.1-  0.1-
240215 G96  0.3+  1.1-    240216 L01  0.1-  0.1+    240216 H01  0.0   0.2+
Ephemeris:
2024 CF7                 a,e,i = 1.09, 0.21, 15                  q = 0.8578
Date    TT    R. A. (2000) Decl.     Delta      r    Elong.  Phase     V
2024 01 17    11 30 26.1 +56 47 55   0.1874  1.1056   126.5    45.6    27.8
...
2024 02 01    11 49 06.9 +58 08 01   0.09649 1.0477   128.2    47.6    26.3
...
2024 02 09    11 56 22.6 +58 23 31   0.04880 1.0176   128.6    49.3    24.8
...
2024 02 15    12 10 08.2 +57 00 16   0.01321 0.9959   128.7    50.7    21.9
2024 02 16    12 22 48.4 +55 08 06   0.0072920.9923   128.7    50.9    20.6
2024 02 17    13 39 12.9 +35 34 44   0.0014830.9888   125.4    54.6    17.3
...
2024 02 23    00 07 07.1 -57 13 21   0.03435 0.9680    51.2   127.2    27.5
...
2024 03 02    00 07 55.5 -56 06 33   0.08189 0.9419    51.1   125.0    29.1
...
2024 03 17    00 02 34.2 -53 11 51   0.1714  0.8995    51.9   119.5    30.2
M. P. C. Staff               (C) Copyright 2024 MPC           M.P.E.C. 2024-D11
    
    
More information about the Iaude
mailing list